Terug naar catalogus

COSMOS 2251 DEB

ActiefLEO
NORAD 34968·DEBRIS·🇷🇺 Russia

Gelanceerd Jun 16, 1993 vanaf Plesetsk Cosmodrome

Loading…

Volgende Passages (komende 24 uur)

TLE

VersSource: Space-Track

Epoch: Sep 14, 2026, 12:04 UTC

1 34968U 93036AEX 26257.50343870  .00000472  00000-0  10024-3 0  9996
2 34968  74.0367  81.2194 0085713 132.8500 227.9909 14.59749434925012

Volg COSMOS 2251 DEB in realtime met AllMySat

Download on the App Store